Weather History for Princeton, BC

Change the Weather History Date:

Sunday, October 14, 2012

  Actual Average Record
Temperature  
Mean Temperature 54 °F -  
Max Temperature 66 °F - - ()
Min Temperature 43 °F - - ()
Degree Days  
Heating Degree Days 10    
Growing Degree Days 4 (Base 50)    
Moisture  
Dew Point 46 °F    
Average Humidity 78    
Maximum Humidity 97    
Minimum Humidity 44    
Precipitation  
Precipitation 0.02 in - - ()
Sea Level Pressure  
Sea Level Pressure 29.87 in    
Wind  
Wind Speed 2 mph ()    
Max Wind Speed 13 mph    
Max Gust Speed 25 mph    
T = Trace of Precipitation, MM = Missing Value Source: Averaged Metar Reports

Daily Weather History Graph

Daily Weather History Graph

Search for Another Location

Airport:

Trip Planner

Search our weather history database for the weather conditions in past years. The results will help you decide how hot, cold, wet, or windy it might be!

Date:

Astronomy

Oct. 14, 2012 Rise Set
Actual Time 7:22 AM PDT 6:12 PM PDT
Civil Twilight 6:50 AM PDT 6:44 PM PDT
Nautical Twilight 6:13 AM PDT 7:21 PM PDT
Astronomical Twilight 5:36 AM PDT 7:58 PM PDT
Moon 6:26 AM PDT (10/14) 5:33 PM PDT (10/14)
Length of Visible Light 11h 54m
Length of Day
10h 49m
Waning Crescent, 1% of the Moon is Illuminated
Oct 14
Waning Crescent
Oct 15
New
Oct 21
First Quarter
Oct 29
Full
Nov 6
Last Quarter

Hourly Weather History & Observations

Time (PDT) Temp. Dew Point Humidity Pressure Visibility Wind Dir Wind Speed Gust Speed Precip Events Conditions
12:00 AM 47.8 °F 46.4 °F 95% 30.04 in - Calm Calm - N/A   Unknown
1:00 AM 47.5 °F 46.2 °F 95% 30.03 in - Calm Calm - 0.02 in   Unknown
2:00 AM 47.5 °F 46.4 °F 96% 30.00 in - Calm Calm - N/A   Unknown
3:00 AM 47.8 °F 46.8 °F 96% 29.99 in - Calm Calm - N/A   Unknown
4:00 AM 47.7 °F 46.6 °F 96% 29.96 in - Calm Calm - N/A   Unknown
5:00 AM 48 °F 47 °F 94% 29.96 in - Calm Calm - -  
6:00 AM 46.9 °F 46.0 °F 97% 29.92 in - West 1.2 mph - N/A   Unknown
7:00 AM 45.1 °F 44.2 °F 97% 29.89 in - Calm Calm - N/A   Unknown
8:00 AM 44.4 °F 43.5 °F 97% 29.86 in - Calm Calm - N/A   Unknown
9:00 AM 46.0 °F 45.1 °F 97% 29.84 in - Calm Calm - N/A   Unknown
10:00 AM 51.3 °F 50.4 °F 97% 29.81 in - SE 1.2 mph - N/A   Unknown
11:00 AM 54 °F 52 °F 90% 29.80 in - Calm Calm - -  
11:00 AM 53.8 °F 51.8 °F 93% 29.80 in - Calm Calm - N/A   Unknown
12:00 PM 60.1 °F 50.4 °F 70% 29.80 in - SSE 2.3 mph - N/A   Unknown
1:00 PM 65.3 °F 43.9 °F 46% 29.81 in - South 12.7 mph 25.3 mph N/A   Unknown
2:00 PM 64.2 °F 43.5 °F 47% 29.82 in - South 9.2 mph - N/A   Unknown
3:00 PM 62.6 °F 43.5 °F 50% 29.85 in - WSW 4.6 mph - N/A   Unknown
4:00 PM 61.0 °F 43.3 °F 52% 29.83 in - SSW 12.7 mph 20.7 mph N/A   Unknown
5:00 PM 60 °F 44 °F 44% 29.84 in - SSW 8.1 mph - -  
5:00 PM 59.9 °F 43.9 °F 55% 29.84 in - SSW 8.1 mph - N/A   Unknown
7:00 PM 58.1 °F 43.3 °F 58% 29.83 in - SW 4.6 mph - N/A   Unknown
8:00 PM 57.0 °F 43.5 °F 61% 29.81 in - SW 6.9 mph - N/A   Unknown
9:00 PM 52.7 °F 43.3 °F 70% 29.81 in - NW 1.2 mph - N/A   Unknown
10:00 PM 50.2 °F 43.2 °F 77% 29.80 in - NW 4.6 mph - N/A   Unknown
11:00 PM 49 °F 43 °F 74% 29.80 in - Calm Calm - -  
11:00 PM 49.1 °F 43.3 °F 81% 29.80 in - Calm Calm - N/A   Unknown